DW6383 Bellaria Igea Marina IT current weather conditions

sailwx.info

Wind from 209

Air temperature 3.9° C
Dewpoint 3.2° C

Last reported at 2020-Jan-27 07:48 UTC.
Time now 2020-Jan-27 08:32 UTC

Location: N 44°09' E 012°28'.
View on Google Maps.

See reports from other nearby stations

  
Tides and Currents Weather Stations Pressure Air Temp Water Temp Dewpoint Dewpoint Depression Visibility Wind Speed Wind Dir Waves Ship Positions
date/time (UTC)wind fromknots sea level pressurealtimeterstation pressurevisibilityair tempwater tempwave heightnotes
2020-Jan-27 07:48 209 3.9
2020-Jan-27 07:33 210 3.9
2020-Jan-27 07:23 210 3.9
2020-Jan-27 07:18 210 3.9
2020-Jan-27 07:13 210 3.3
2020-Jan-27 07:08 210 3.3
2020-Jan-27 07:03 210 3.3
2020-Jan-27 06:58 210 3.3
2020-Jan-27 06:53 210 3.3
2020-Jan-27 06:33 210 3.3
2020-Jan-27 06:28 210 3.3
2020-Jan-27 06:23 210 3.3
2020-Jan-27 06:18 210 3.3
2020-Jan-27 06:08 210 3.3
2020-Jan-27 06:03 210 3.3
2020-Jan-27 05:58 210 3.3
2020-Jan-27 05:48 210 3.3
2020-Jan-27 05:43 210 3.3
2020-Jan-27 05:38 210 3.3
2020-Jan-27 05:23 209 3.3
2020-Jan-27 05:18 208 3.3
2020-Jan-27 05:08 217 3.3
2020-Jan-27 05:03 205 3.3
2020-Jan-27 04:48 221 3.3
2020-Jan-27 04:38 221 3.3
2020-Jan-27 04:28 221 3.3
2020-Jan-27 04:23 244 3.3
2020-Jan-27 04:18 244 3.3
2020-Jan-27 04:13 244 3.3
2020-Jan-27 04:08 244 3.3
2020-Jan-27 04:03 244 3.3
2020-Jan-27 03:58 244 3.3
2020-Jan-27 03:48 244 3.3
2020-Jan-27 03:38 244 3.3
2020-Jan-27 03:23 239 3.3
2020-Jan-27 03:18 239 3.3
2020-Jan-27 03:08 239 3.3
2020-Jan-27 02:58 239 3.9
2020-Jan-27 02:53 239 3.9
2020-Jan-27 02:48 239 3.9
2020-Jan-27 02:38 240 3.9
2020-Jan-27 02:28 240 3.9
2020-Jan-27 02:23 241 3.9
2020-Jan-27 02:08 280 4.4
2020-Jan-27 01:58 280 4.4
2020-Jan-27 01:53 281 4.4
2020-Jan-27 01:48 281 4.4
2020-Jan-27 01:43 282 4.4
2020-Jan-27 01:38 282 4.4
2020-Jan-27 01:33 282 4.4
2020-Jan-27 01:28 282 4.4
2020-Jan-27 01:23 282 4.4
2020-Jan-27 01:13 282 5.0
2020-Jan-27 01:08 282 5.0
2020-Jan-27 00:43 282 5.0
2020-Jan-27 00:38 282 5.0
2020-Jan-27 00:33 282 5.0
2020-Jan-27 00:28 251 5.0
2020-Jan-27 00:13 251 5.0
2020-Jan-27 00:08 250 5.0
2020-Jan-26 23:58 246 5.0
2020-Jan-26 23:53 246 5.0
2020-Jan-26 23:48 246 5.0
2020-Jan-26 23:38 246 5.0
2020-Jan-26 23:33 246 5.0
2020-Jan-26 23:28 246 5.0
2020-Jan-26 23:03 267 1 gusting 2 5.6
2020-Jan-26 22:53 290 5.6
2020-Jan-26 22:43 290 5.6
2020-Jan-26 22:28 290 5.6
2020-Jan-26 22:23 290 5.6
2020-Jan-26 22:18 290 5.6
2020-Jan-26 22:08 290 5.6
2020-Jan-26 22:03 290 5.6
2020-Jan-26 21:58 290 5.6
2020-Jan-26 21:43 290 5.6
2020-Jan-26 21:38 290 5.6
2020-Jan-26 21:28 290 6.1
2020-Jan-26 21:23 290 6.1
2020-Jan-26 21:18 292 6.1
2020-Jan-26 21:08 292 6.1
2020-Jan-26 21:03 292 6.1
2020-Jan-26 20:53 292 6.1
2020-Jan-26 20:48 292 6.7
2020-Jan-26 20:43 292 6.7
2020-Jan-26 20:33 292 6.7
2020-Jan-26 19:58 292 7.2
2020-Jan-26 19:53 292 7.2
2020-Jan-26 19:43 292 7.8
2020-Jan-26 19:33 292 7.8
2020-Jan-26 19:28 292 7.8
2020-Jan-26 19:13 292 7.8
2020-Jan-26 19:08 292 7.8
2020-Jan-26 19:03 292 7.8
2020-Jan-26 18:58 292 7.8
2020-Jan-26 18:53 292 7.8
2020-Jan-26 18:43 292 8.3
2020-Jan-26 18:38 292 8.3
2020-Jan-26 18:33 292 8.3
2020-Jan-26 18:28 292 8.3
2020-Jan-26 18:23 292 8.3
2020-Jan-26 18:18 292 8.3
2020-Jan-26 18:08 292 8.3
2020-Jan-26 17:58 292 8.3
2020-Jan-26 17:48 292 8.3
2020-Jan-26 17:38 292 8.3
2020-Jan-26 17:33 292 8.3
2020-Jan-26 17:28 292 8.3
2020-Jan-26 16:58 292 8.3
2020-Jan-26 16:53 292 8.3
2020-Jan-26 16:48 292 8.3
2020-Jan-26 16:43 292 8.3
2020-Jan-26 16:28 292 8.3
2020-Jan-26 16:23 292 8.3
2020-Jan-26 16:18 292 8.9
2020-Jan-26 16:13 291 8.9
2020-Jan-26 16:08 292 8.9
2020-Jan-26 16:03 292 8.9
2020-Jan-26 15:58 291 8.9
2020-Jan-26 15:53 291 8.9
2020-Jan-26 15:48 291 8.9
2020-Jan-26 15:43 275 8.9
2020-Jan-26 15:38 292 8.9
2020-Jan-26 15:33 285 8.9
2020-Jan-26 15:23 281 8.9
2020-Jan-26 15:08 275 2 gusting 3 8.9
2020-Jan-26 14:58 267 0 gusting 4 8.9
2020-Jan-26 14:48 310 8.9
2020-Jan-26 14:43 297 0 gusting 2 8.9
2020-Jan-26 14:38 298 8.9
2020-Jan-26 14:33 286 8.3
2020-Jan-26 14:28 298 1 gusting 5 8.3
2020-Jan-26 14:23 296 5 gusting 6 8.3
2020-Jan-26 14:18 289 1 gusting 3 8.3
2020-Jan-26 14:13 298 8.3
2020-Jan-26 13:58 306 2 gusting 6 8.3
2020-Jan-26 13:53 283 0 gusting 5 8.3
2020-Jan-26 13:48 306 8.3
2020-Jan-26 13:38 292 7 gusting 8 8.3
2020-Jan-26 13:33 318 1 gusting 7 8.3
2020-Jan-26 13:23 309 2 gusting 9 8.3
2020-Jan-26 13:18 294 2 gusting 6 8.3
2020-Jan-26 13:13 284 4 gusting 6 8.3
2020-Jan-26 13:03 321 3 gusting 6 8.3
2020-Jan-26 12:48 038 8.3
2020-Jan-26 12:33 036 2 gusting 4 8.3
2020-Jan-26 12:28 034 8.9
2020-Jan-26 12:03 344 8.3
2020-Jan-26 11:58 319 8.3
2020-Jan-26 11:38 294 1 gusting 2 8.3
2020-Jan-26 11:33 306 1 gusting 3 8.3
2020-Jan-26 11:23 321 0 gusting 6 7.8
2020-Jan-26 11:13 302 1 gusting 6 7.8
2020-Jan-26 11:08 275 6 gusting 6 7.8
2020-Jan-26 11:03 315 0 gusting 5 7.8
2020-Jan-26 10:58 298 1 gusting 6 7.8
2020-Jan-26 10:48 267 1 gusting 6 7.2
2020-Jan-26 10:43 298 0 gusting 7 7.2
2020-Jan-26 10:38 286 4 gusting 6 7.2
2020-Jan-26 10:23 292 7.2
2020-Jan-26 10:18 291 2 gusting 5 7.2
2020-Jan-26 10:08 269 2 gusting 6 7.2
2020-Jan-26 10:03 263 7.2
2020-Jan-26 09:53 303 6.7
2020-Jan-26 09:23 296 0 gusting 4 6.7
2020-Jan-26 09:13 277 1 gusting 4 6.7
2020-Jan-26 08:53 296 6.1
2020-Jan-26 08:43 304 1 gusting 4 6.1
2020-Jan-26 08:38 310 6.1
2020-Jan-26 08:23 286 6.1
2020-Jan-26 08:18 307 6.1
2020-Jan-26 08:08 279 6.1
2020-Jan-26 07:58 281 6.1
2020-Jan-26 07:53 281 6.1
2020-Jan-26 07:43 281 5.6
2020-Jan-26 07:38 281 5.6
2020-Jan-26 07:33 281 5.6
2020-Jan-26 07:23 281 5.6
2020-Jan-26 07:13 281 5.6
2020-Jan-26 07:08 281 5.6
2020-Jan-26 07:03 281 5.6
2020-Jan-26 06:48 281 5.6
2020-Jan-26 06:43 281 5.6
2020-Jan-26 06:38 281 5.6
2020-Jan-26 06:33 281 5.6
2020-Jan-26 06:28 281 5.6
2020-Jan-26 06:18 281 5.6
2020-Jan-26 06:08 281 5.6
2020-Jan-26 06:03 281 5.6
2020-Jan-26 05:58 281 5.6
2020-Jan-26 05:43 281 5.6
2020-Jan-26 05:38 281 5.6
2020-Jan-26 05:33 281 5.6
2020-Jan-26 05:28 281 5.6
2020-Jan-26 05:23 281 5.6
2020-Jan-26 05:13 281 5.6
2020-Jan-26 05:08 281 5.6
2020-Jan-26 05:03 281 5.6
2020-Jan-26 04:48 281 5.6
2020-Jan-26 04:43 281 5.6
2020-Jan-26 04:33 281 5.6
2020-Jan-26 04:28 281 5.6
2020-Jan-26 04:08 281 5.6
2020-Jan-26 04:03 281 5.6
2020-Jan-26 03:53 281 5.6
2020-Jan-26 03:48 281 5.6
2020-Jan-26 03:43 281 5.6
2020-Jan-26 03:33 281 5.6
2020-Jan-26 03:28 281 5.6
2020-Jan-26 03:23 281 5.6
2020-Jan-26 03:08 283 5.6
2020-Jan-26 03:03 257 5.6
2020-Jan-26 02:58 279 5.6
2020-Jan-26 02:53 279 5.6
2020-Jan-26 02:48 279 5.6
2020-Jan-26 02:43 279 5.6
2020-Jan-26 02:28 279 5.6
2020-Jan-26 02:18 279 5.6
2020-Jan-26 02:13 279 5.6
2020-Jan-26 01:48 292 5.6
2020-Jan-26 01:43 274 5.6
2020-Jan-26 01:38 274 5.6
2020-Jan-26 01:28 271 5.6
2020-Jan-26 01:23 279 5.6
2020-Jan-26 01:13 270 0 gusting 3 5.6
2020-Jan-26 01:08 254 5.6
2020-Jan-26 01:03 254 5.6
2020-Jan-26 00:53 283 5.6
2020-Jan-26 00:43 269 5.6
2020-Jan-26 00:38 269 5.6
2020-Jan-26 00:28 288 5.6
2020-Jan-26 00:18 270 5.6
2020-Jan-26 00:13 271 5.6
2020-Jan-26 00:08 263 5.6
2020-Jan-26 00:03 259 2 gusting 2 5.6
2020-Jan-25 23:58 259 5.6
2020-Jan-25 23:53 261 5.6
2020-Jan-25 23:48 260 5.6
2020-Jan-25 23:38 272 5.6
2020-Jan-25 23:33 273 5.6
2020-Jan-25 23:08 270 5.6
2020-Jan-25 23:03 270 5.6
2020-Jan-25 22:43 279 5.6
2020-Jan-25 22:38 277 5.6
2020-Jan-25 22:23 284 6.1
2020-Jan-25 22:18 254 6.1
2020-Jan-25 22:13 294 6.1
2020-Jan-25 22:08 294 6.1
2020-Jan-25 22:03 292 6.1
2020-Jan-25 21:53 291 6.1
2020-Jan-25 21:48 300 6.1
2020-Jan-25 21:33 300 6.1
2020-Jan-25 21:18 306 6.1
2020-Jan-25 21:13 306 6.1
2020-Jan-25 21:08 306 6.1
2020-Jan-25 20:53 291 6.1
2020-Jan-25 20:43 292 6.1
2020-Jan-25 20:28 292 1 gusting 3 6.1
2020-Jan-25 20:23 320 6.1
2020-Jan-25 20:13 306 6.1
2020-Jan-25 20:03 302 6.1
2020-Jan-25 19:53 271 6.1
2020-Jan-25 19:48 283 6.1
2020-Jan-25 19:18 290 6.1
2020-Jan-25 19:08 288 6.1
2020-Jan-25 19:03 288 6.1
2020-Jan-25 18:58 286 6.1
2020-Jan-25 18:38 282 6.1
2020-Jan-25 18:28 282 6.1
2020-Jan-25 18:18 298 6.1
2020-Jan-25 18:13 259 6.1
2020-Jan-25 18:03 273 6.1
2020-Jan-25 17:53 277 6.1
2020-Jan-25 17:43 300 6.1
2020-Jan-25 17:33 281 0 gusting 3 6.1
2020-Jan-25 17:28 300 6.1
2020-Jan-25 17:23 308 2 gusting 3 6.1
2020-Jan-25 17:13 280 6.1
2020-Jan-25 17:08 288 6.1
2020-Jan-25 17:03 288 6.1
2020-Jan-25 16:53 269 0 gusting 4 6.1
2020-Jan-25 16:48 311 0 gusting 2 6.1
2020-Jan-25 16:43 309 6.1
2020-Jan-25 16:38 288 6.1
2020-Jan-25 16:28 308 6.1
2020-Jan-25 16:23 282 6.1
2020-Jan-25 16:18 278 6.1
2020-Jan-25 16:08 286 2 gusting 3 6.1
2020-Jan-25 15:58 302 6.1
2020-Jan-25 15:43 283 6.1
2020-Jan-25 15:38 290 6.1
2020-Jan-25 15:28 299 1 gusting 6 6.1
2020-Jan-25 15:23 259 1 gusting 6 6.1
2020-Jan-25 15:13 300 3 gusting 6 6.1
2020-Jan-25 15:03 294 2 gusting 9 6.1
2020-Jan-25 14:53 298 3 gusting 6 6.1
2020-Jan-25 14:48 292 1 gusting 8 6.1
2020-Jan-25 14:43 277 6 gusting 9 6.1
2020-Jan-25 14:18 286 2 gusting 8 6.1
2020-Jan-25 14:13 292 6 gusting 10 6.1
2020-Jan-25 14:08 281 6.1
2020-Jan-25 13:53 294 6 gusting 9 6.1
2020-Jan-25 13:48 299 5 gusting 10 6.1
2020-Jan-25 13:33 293 6 gusting 10 6.1
2020-Jan-25 13:28 281 0 gusting 10 6.1
2020-Jan-25 13:23 295 5 gusting 8 6.1
2020-Jan-25 13:18 273 1 gusting 8 6.1
2020-Jan-25 13:08 291 3 gusting 11 6.1
2020-Jan-25 12:43 309 8 gusting 12 6.1
2020-Jan-25 12:28 276 4 gusting 8 6.1
2020-Jan-25 12:23 304 2 gusting 12 6.1
2020-Jan-25 12:13 246 3 gusting 9 6.1
2020-Jan-25 12:03 348 4 gusting 4 6.1
2020-Jan-25 11:58 274 0 gusting 10 5.6
2020-Jan-25 11:53 299 4 gusting 11 5.6
2020-Jan-25 11:48 288 10 gusting 11 6.1
2020-Jan-25 11:43 300 8 gusting 12 5.6
2020-Jan-25 11:33 274 0 gusting 10 6.1
2020-Jan-25 11:23 271 6 gusting 11 6.1
2020-Jan-25 11:18 310 6 gusting 9 6.1
2020-Jan-25 11:13 304 1 gusting 9 6.1
2020-Jan-25 11:03 281 2 gusting 9 6.1
2020-Jan-25 10:58 269 6 gusting 12 6.1
2020-Jan-25 10:43 277 2 gusting 8 6.1
2020-Jan-25 10:38 288 6 gusting 8 6.1
2020-Jan-25 10:33 290 7 gusting 11 6.1
2020-Jan-25 10:28 275 7 gusting 10 6.1
2020-Jan-25 10:18 276 1 gusting 9 5.6
2020-Jan-25 10:08 274 3 gusting 9 5.6
2020-Jan-25 10:03 297 9 gusting 9 5.6
2020-Jan-25 09:58 304 6 gusting 8 5.6
2020-Jan-25 09:53 274 1 gusting 9 5.6
2020-Jan-25 09:43 321 6 gusting 11 5.6
2020-Jan-25 09:33 292 7 gusting 8 5.6
2020-Jan-25 09:28 290 5.6
2020-Jan-25 09:23 275 2 gusting 8 5.6
2020-Jan-25 09:18 282 2 gusting 9 5.6
2020-Jan-25 09:13 299 6 gusting 10 5.6
2020-Jan-25 09:03 277 2 gusting 6 5.6
2020-Jan-25 08:48 293 1 gusting 9 5.6
2020-Jan-25 08:43 271 8 gusting 8 5.6
2020-Jan-25 08:28 279 5 gusting 7 5.6
2020-Jan-25 08:23 276 7 gusting 8 5.6
2020-Jan-25 08:18 279 2 gusting 10 5.6
2020-Jan-25 08:13 293 6 gusting 8 5.6
2020-Jan-25 08:08 298 2 gusting 5 5.6
2020-Jan-25 08:03 298 5.6